Tracking 28514 objects as of 23-Feb-2024
HD Live streaming from Space Station
objects crossing your sky now

ATLAS 14E R/B

Track ATLAS 14E R/B now!
10-day predictions


NORAD ID: 15272
Int'l Code: 1984-097B
Perigee: 1,691.7 km
Apogee: 19,663.2 km
Inclination: 64.6 °
Period: 369.2 minutes
Semi major axis: 17048 km
RCS: 2.3359 m2 (large)
Launch date: September 8, 1984
Source: United States (US)
Launch site: AIR FORCE WESTERN TEST RANGE (AFWTR)

Note: This is a ROCKET BODY
Your satellite tracking list
Your tracking list is empty




NASA's NSSDC Master Catalog

Two Line Element Set (TLE):
1 15272U 84097B   24053.59241274  .00000018  00000-0  00000+0 0  9991
2 15272  64.5623 155.2038 5270701 309.3130  33.6815  3.90009911562001
Source of the keplerian elements: AFSPC